,,,PA_Meas_PMT16A,,PR_Meas_QMR101_102,,RH_Meas_QMH101,,SR_Meas_QMS101,,TA_Meas_QMH101,,GenWind,,GenWind,
date,time,status,PA,status,PR,status,RH,status,SR,status,TA,status,DirAvg,status,SpdAvg,
2012-10-16, 00:00:04,VALID,1011.26,VALID,0,VALID,104,VALID,0,VALID,23.5771,VALID,341,VALID,0.160547,
2012-10-16, 00:01:04,VALID,1011.27,VALID,0,VALID,104,VALID,0,VALID,23.5753,VALID,341,VALID,0.567578,
2012-10-16, 00:02:04,VALID,1011.24,VALID,0,VALID,104,VALID,0,VALID,23.5753,VALID,341,VALID,0.307031,
2012-10-16, 00:03:04,VALID,1011.23,VALID,0,VALID,104,VALID,0,VALID,23.6161,VALID,342,VALID,0.152344,
2012-10-16, 00:04:04,VALID,1011.24,VALID,0,VALID,104,VALID,0.112112,VALID,23.6161,VALID,342,VALID,0.344531,
2012-10-16, 00:05:04,VALID,1011.22,VALID,0,VALID,104,VALID,0,VALID,23.5966,VALID,341,VALID,0.213281,
2012-10-16, 00:06:04,VALID,1011.18,VALID,0,VALID,104,VALID,0.112112,VALID,23.5753,VALID,341,VALID,0.0730469,
2012-10-16, 00:07:04,VALID,1011.21,VALID,0,VALID,104,VALID,0.112112,VALID,23.5753,VALID,341,VALID,0,
2012-10-16, 00:08:04,VALID,1011.2,VALID,0,VALID,104,VALID,0,VALID,23.5363,VALID,342,VALID,0.254297,
2012-10-16, 00:09:04,VALID,1011.14,VALID,0,VALID,104,VALID,0.112112,VALID,23.5363,VALID,341,VALID,0.187109,
2012-10-16, 00:10:04,VALID,1011.19,VALID,0,VALID,104,VALID,0.112112,VALID,23.5381,VALID,341,VALID,0,
2012-10-16, 00:11:04,VALID,1011.16,VALID,0,VALID,104,VALID,0,VALID,23.5576,VALID,341,VALID,0,
2012-10-16, 00:12:04,VALID,1011.14,VALID,0,VALID,104,VALID,0,VALID,23.5363,VALID,341,VALID,0,
2012-10-16, 00:13:04,VALID,1011.1,VALID,0,VALID,104,VALID,0,VALID,23.5576,VALID,341,VALID,0,
2012-10-16, 00:14:04,VALID,1011.03,VALID,0,VALID,104,VALID,0.112112,VALID,23.5558,VALID,341,VALID,0,
2012-10-16, 00:15:04,VALID,1010.99,VALID,0,VALID,104,VALID,0,VALID,23.5771,VALID,341,VALID,0.0230469,
2012-10-16, 00:16:04,VALID,1010.96,VALID,0,VALID,104,VALID,0.112112,VALID,23.5966,VALID,341,VALID,0.396094,
2012-10-16, 00:17:04,VALID,1010.92,VALID,0,VALID,104,VALID,0.112112,VALID,23.6161,VALID,337,VALID,0.269922,
2012-10-16, 00:18:04,VALID,1010.89,VALID,0,VALID,104,VALID,0.112112,VALID,23.5948,VALID,338,VALID,0.391797,
2012-10-16, 00:19:04,VALID,1010.85,VALID,0,VALID,104,VALID,0,VALID,23.5948,VALID,338,VALID,0.0921875,
2012-10-16, 00:20:04,VALID,1010.84,VALID,0,VALID,104,VALID,0.112112,VALID,23.6161,VALID,338,VALID,0.412891,
2012-10-16, 00:21:04,VALID,1010.8,VALID,0,VALID,104,VALID,0,VALID,23.6356,VALID,337,VALID,1.00703,
2012-10-16, 00:22:04,VALID,1010.78,VALID,0,VALID,104,VALID,0.112112,VALID,23.6356,VALID,323,VALID,0.530469,
2012-10-16, 00:23:04,VALID,1010.78,VALID,0,VALID,104,VALID,0,VALID,23.5948,VALID,319,VALID,0,
2012-10-16, 00:24:04,VALID,1010.74,VALID,0,VALID,104,VALID,0,VALID,23.5966,VALID,319,VALID,0,
2012-10-16, 00:25:04,VALID,1010.71,VALID,0,VALID,104,VALID,0,VALID,23.5948,VALID,319,VALID,0,
2012-10-16, 00:26:04,VALID,1010.7,VALID,0,VALID,104,VALID,0.112112,VALID,23.5948,VALID,328,VALID,0.525781,
2012-10-16, 00:27:04,VALID,1010.69,VALID,0,VALID,104,VALID,0,VALID,23.5948,VALID,328,VALID,0.201562,
2012-10-16, 00:28:04,VALID,1010.68,VALID,0,VALID,104,VALID,0.112112,VALID,23.6356,VALID,328,VALID,0.165234,
2012-10-16, 00:29:04,VALID,1010.66,VALID,0,VALID,104,VALID,0.112112,VALID,23.6161,VALID,328,VALID,0,
2012-10-16, 00:30:04,VALID,1010.67,VALID,0,VALID,104,VALID,0,VALID,23.5966,VALID,328,VALID,0.381641,
2012-10-16, 00:31:04,VALID,1010.67,VALID,0,VALID,104,VALID,0,VALID,23.6161,VALID,328,VALID,0.443359,
2012-10-16, 00:32:04,VALID,1010.69,VALID,0,VALID,104,VALID,0,VALID,23.5558,VALID,328,VALID,0.059375,
2012-10-16, 00:33:04,VALID,1010.69,VALID,0,VALID,104,VALID,0,VALID,23.5771,VALID,328,VALID,0,
2012-10-16, 00:34:04,VALID,1010.66,VALID,0,VALID,104,VALID,0.112112,VALID,23.5771,VALID,343,VALID,0.580859,
2012-10-16, 00:35:04,VALID,1010.61,VALID,0,VALID,104,VALID,0.112112,VALID,23.5558,VALID,342,VALID,0.207422,
2012-10-16, 00:36:04,VALID,1010.56,VALID,0,VALID,104,VALID,0,VALID,23.5753,VALID,332,VALID,0.370703,
2012-10-16, 00:37:04,VALID,1010.51,VALID,0,VALID,104,VALID,0.112112,VALID,23.5771,VALID,318,VALID,0.501172,
2012-10-16, 00:38:04,VALID,1010.49,VALID,0,VALID,104,VALID,0,VALID,23.5753,VALID,337,VALID,0.88125,
2012-10-16, 00:39:04,VALID,1010.43,VALID,0,VALID,104,VALID,0,VALID,23.5771,VALID,338,VALID,0.360938,
2012-10-16, 00:40:04,VALID,1010.42,VALID,0,VALID,104,VALID,0,VALID,23.5966,VALID,358,VALID,0.388281,
2012-10-16, 00:41:04,VALID,1010.38,VALID,0,VALID,104,VALID,0,VALID,23.5771,VALID,358,VALID,0.521484,
2012-10-16, 00:42:04,VALID,1010.38,VALID,0,VALID,104,VALID,0,VALID,23.5558,VALID,358,VALID,0.0109375,
2012-10-16, 00:43:04,VALID,1010.35,VALID,0,VALID,104,VALID,0,VALID,23.5363,VALID,358,VALID,0,
2012-10-16, 00:44:04,VALID,1010.29,VALID,0,VALID,104,VALID,0.112112,VALID,23.5169,VALID,358,VALID,0.00078125,
2012-10-16, 00:45:04,VALID,1010.25,VALID,0,VALID,104,VALID,0,VALID,23.5169,VALID,358,VALID,0.406641,
2012-10-16, 00:46:04,VALID,1010.21,VALID,0,VALID,104,VALID,0.112112,VALID,23.5363,VALID,358,VALID,0.184766,
2012-10-16, 00:47:04,VALID,1010.19,VALID,0,VALID,104,VALID,0,VALID,23.5363,VALID,358,VALID,0.204297,
2012-10-16, 00:48:04,VALID,1010.17,VALID,0,VALID,104,VALID,0.112112,VALID,23.5363,VALID,358,VALID,0.375781,
2012-10-16, 00:49:04,VALID,1010.16,VALID,0,VALID,104,VALID,0,VALID,23.5363,VALID,358,VALID,0.0582031,
2012-10-16, 00:50:04,VALID,1010.11,VALID,0,VALID,104,VALID,0,VALID,23.5169,VALID,358,VALID,0.234766,
2012-10-16, 00:51:04,VALID,1010.09,VALID,0,VALID,104,VALID,0,VALID,23.5169,VALID,358,VALID,0,
2012-10-16, 00:52:04,VALID,1010.13,VALID,0,VALID,104,VALID,0,VALID,23.5381,VALID,358,VALID,0.169922,
2012-10-16, 00:53:04,VALID,1010.11,VALID,0,VALID,104,VALID,0.112112,VALID,23.5576,VALID,358,VALID,0.0949219,
2012-10-16, 00:54:04,VALID,1010.14,VALID,0,VALID,104,VALID,0,VALID,23.5381,VALID,358,VALID,0.408984,
2012-10-16, 00:55:04,VALID,1010.2,VALID,0,VALID,104,VALID,0,VALID,23.5363,VALID,358,VALID,0.227734,
2012-10-16, 00:56:04,VALID,1010.18,VALID,0,VALID,104,VALID,0,VALID,23.5169,VALID,358,VALID,0.275,
2012-10-16, 00:57:04,VALID,1010.19,VALID,0,VALID,104,VALID,0,VALID,23.4974,VALID,358,VALID,0.296484,
2012-10-16, 00:58:04,VALID,1010.18,VALID,0,VALID,104,VALID,0.112112,VALID,23.5169,VALID,358,VALID,0.28125,
2012-10-16, 00:59:04,VALID,1010.15,VALID,0,VALID,104,VALID,0.112112,VALID,23.5169,VALID,358,VALID,0.119141,
2012-10-16, 01:00:04,VALID,1010.17,VALID,0,VALID,104,VALID,0,VALID,23.5381,VALID,358,VALID,0.204297,
2012-10-16, 01:01:04,VALID,1010.17,VALID,0,VALID,104,VALID,0.112112,VALID,23.5169,VALID,358,VALID,0,
2012-10-16, 01:02:04,VALID,1010.17,VALID,0,VALID,104,VALID,0,VALID,23.4974,VALID,358,VALID,0,
2012-10-16, 01:03:04,VALID,1010.13,VALID,0,VALID,104,VALID,0,VALID,23.5186,VALID,358,VALID,0,
2012-10-16, 01:04:04,VALID,1010.11,VALID,0,VALID,104,VALID,0,VALID,23.4992,VALID,358,VALID,0.138281,
2012-10-16, 01:05:04,VALID,1010.1,VALID,0,VALID,104,VALID,0,VALID,23.4992,VALID,358,VALID,0.179688,
2012-10-16, 01:06:04,VALID,1010.07,VALID,0,VALID,104,VALID,0,VALID,23.5186,VALID,358,VALID,0,
2012-10-16, 01:07:04,VALID,1010.07,VALID,0,VALID,104,VALID,0,VALID,23.5381,VALID,358,VALID,0,
2012-10-16, 01:08:04,VALID,1010.07,VALID,0,VALID,104,VALID,0,VALID,23.4974,VALID,358,VALID,0,
2012-10-16, 01:09:04,VALID,1010.07,VALID,0,VALID,104,VALID,0,VALID,23.4992,VALID,358,VALID,0,
2012-10-16, 01:10:04,VALID,1010.15,VALID,0,VALID,104,VALID,0,VALID,23.4992,VALID,358,VALID,0,
2012-10-16, 01:11:04,VALID,1010.18,VALID,0,VALID,104,VALID,0,VALID,23.4797,VALID,358,VALID,0,
2012-10-16, 01:12:04,VALID,1010.24,VALID,0,VALID,104,VALID,0,VALID,23.4797,VALID,358,VALID,0.216797,
2012-10-16, 01:13:04,VALID,1010.29,VALID,0,VALID,104,VALID,0,VALID,23.4797,VALID,358,VALID,0.204688,
2012-10-16, 01:14:04,VALID,1010.35,VALID,0,VALID,104,VALID,0,VALID,23.4992,VALID,358,VALID,0.396875,
2012-10-16, 01:15:04,VALID,1010.36,VALID,0,VALID,104,VALID,0,VALID,23.4992,VALID,358,VALID,0.4375,
2012-10-16, 01:16:04,VALID,1010.42,VALID,0,VALID,104,VALID,0,VALID,23.5186,VALID,358,VALID,0.310156,
2012-10-16, 01:17:04,VALID,1010.41,VALID,0,VALID,104,VALID,0,VALID,23.5381,VALID,358,VALID,0.242969,
2012-10-16, 01:18:04,VALID,1010.45,VALID,0,VALID,104,VALID,0,VALID,23.5169,VALID,358,VALID,0.207031,
2012-10-16, 01:19:04,VALID,1010.46,VALID,0,VALID,104,VALID,0,VALID,23.5558,VALID,358,VALID,0.00703125,
2012-10-16, 01:20:04,VALID,1010.47,VALID,0,VALID,104,VALID,0,VALID,23.5771,VALID,358,VALID,0.397656,
2012-10-16, 01:21:04,VALID,1010.49,VALID,0,VALID,104,VALID,0,VALID,23.5966,VALID,358,VALID,0.692578,
2012-10-16, 01:22:04,VALID,1010.55,VALID,0,VALID,104,VALID,0,VALID,23.5576,VALID,167,VALID,0.825781,
2012-10-16, 01:23:04,VALID,1010.57,VALID,0,VALID,104,VALID,0,VALID,23.5381,VALID,167,VALID,0.483594,
2012-10-16, 01:24:04,VALID,1010.59,VALID,0,VALID,104,VALID,0,VALID,23.5381,VALID,167,VALID,0.469531,
2012-10-16, 01:25:04,VALID,1010.61,VALID,0,VALID,104,VALID,0,VALID,23.5558,VALID,167,VALID,0.0117188,
2012-10-16, 01:26:04,VALID,1010.61,VALID,0,VALID,104,VALID,0,VALID,23.5966,VALID,167,VALID,0,
2012-10-16, 01:27:04,VALID,1010.64,VALID,0,VALID,104,VALID,0,VALID,23.5966,VALID,167,VALID,0,
2012-10-16, 01:28:04,VALID,1010.62,VALID,0,VALID,104,VALID,0,VALID,23.6161,VALID,167,VALID,0,
2012-10-16, 01:29:04,VALID,1010.62,VALID,0,VALID,104,VALID,0,VALID,23.6161,VALID,167,VALID,0,
2012-10-16, 01:30:04,VALID,1010.63,VALID,0,VALID,104,VALID,0,VALID,23.6161,VALID,167,VALID,0,
2012-10-16, 01:31:04,VALID,1010.61,VALID,0,VALID,104,VALID,0,VALID,23.6161,VALID,167,VALID,0,
2012-10-16, 01:32:04,VALID,1010.62,VALID,0,VALID,104,VALID,0,VALID,23.6161,VALID,167,VALID,0,
2012-10-16, 01:33:04,VALID,1010.62,VALID,0,VALID,104,VALID,0,VALID,23.6161,VALID,167,VALID,0,
2012-10-16, 01:34:04,VALID,1010.6,VALID,0,VALID,104,VALID,0,VALID,23.6161,VALID,167,VALID,0,
2012-10-16, 01:35:04,VALID,1010.59,VALID,0,VALID,104,VALID,0,VALID,23.655,VALID,167,VALID,0,
2012-10-16, 01:36:04,VALID,1010.52,VALID,0,VALID,104,VALID,0,VALID,23.655,VALID,167,VALID,0,
2012-10-16, 01:37:04,VALID,1010.5,VALID,0,VALID,104,VALID,0,VALID,23.6745,VALID,167,VALID,0,
2012-10-16, 01:38:04,VALID,1010.42,VALID,0,VALID,104,VALID,0.112112,VALID,23.694,VALID,167,VALID,0,
2012-10-16, 01:39:04,VALID,1010.4,VALID,0,VALID,104,VALID,0,VALID,23.694,VALID,167,VALID,0,
2012-10-16, 01:40:04,VALID,1010.36,VALID,0,VALID,104,VALID,0,VALID,23.6745,VALID,167,VALID,0,
2012-10-16, 01:41:04,VALID,1010.34,VALID,0,VALID,104,VALID,0,VALID,23.6532,VALID,167,VALID,0,
2012-10-16, 01:42:04,VALID,1010.34,VALID,0,VALID,104,VALID,0,VALID,23.655,VALID,167,VALID,0,
2012-10-16, 01:43:04,VALID,1010.34,VALID,0,VALID,104,VALID,0,VALID,23.6356,VALID,167,VALID,0,
2012-10-16, 01:44:04,VALID,1010.31,VALID,0,VALID,104,VALID,0,VALID,23.6356,VALID,167,VALID,0,
2012-10-16, 01:45:04,VALID,1010.24,VALID,0,VALID,104,VALID,0,VALID,23.6143,VALID,167,VALID,0,
2012-10-16, 01:46:04,VALID,1010.21,VALID,0,VALID,104,VALID,0,VALID,23.5966,VALID,167,VALID,0,
2012-10-16, 01:47:04,VALID,1010.19,VALID,0,VALID,104,VALID,0,VALID,23.5771,VALID,167,VALID,0,
2012-10-16, 01:48:04,VALID,1010.15,VALID,0,VALID,104,VALID,0,VALID,23.5558,VALID,167,VALID,0,
2012-10-16, 01:49:04,VALID,1010.14,VALID,0,VALID,104,VALID,0,VALID,23.5558,VALID,168,VALID,0,
2012-10-16, 01:50:04,VALID,1010.13,VALID,0,VALID,104,VALID,0,VALID,23.5558,VALID,168,VALID,0,
2012-10-16, 01:51:04,VALID,1010.13,VALID,0,VALID,104,VALID,0,VALID,23.5363,VALID,168,VALID,0,
2012-10-16, 01:52:04,VALID,1010.1,VALID,0,VALID,104,VALID,0,VALID,23.5576,VALID,168,VALID,0,
2012-10-16, 01:53:04,VALID,1010.09,VALID,0,VALID,104,VALID,0,VALID,23.5576,VALID,168,VALID,0,
2012-10-16, 01:54:04,VALID,1010.09,VALID,0,VALID,104,VALID,0,VALID,23.5363,VALID,168,VALID,0,
2012-10-16, 01:55:04,VALID,1010.07,VALID,0,VALID,104,VALID,0,VALID,23.5558,VALID,168,VALID,0,
2012-10-16, 01:56:04,VALID,1010.03,VALID,0,VALID,104,VALID,0.112112,VALID,23.5558,VALID,168,VALID,0,
2012-10-16, 01:57:04,VALID,1010.03,VALID,0,VALID,104,VALID,0,VALID,23.5771,VALID,168,VALID,0,
2012-10-16, 01:58:04,VALID,1010.06,VALID,0,VALID,104,VALID,0,VALID,23.5771,VALID,168,VALID,0,
2012-10-16, 01:59:04,VALID,1010.03,VALID,0,VALID,104,VALID,0,VALID,23.5558,VALID,168,VALID,0,
2012-10-16, 02:00:04,VALID,1010.09,VALID,0,VALID,104,VALID,0,VALID,23.5576,VALID,168,VALID,0,
2012-10-16, 02:01:04,VALID,1010.12,VALID,0,VALID,104,VALID,0,VALID,23.5576,VALID,168,VALID,0,
2012-10-16, 02:02:04,VALID,1010.13,VALID,0,VALID,104,VALID,0.112112,VALID,23.5169,VALID,168,VALID,0,
2012-10-16, 02:03:04,VALID,1010.13,VALID,0,VALID,104,VALID,0,VALID,23.4974,VALID,168,VALID,0,
2012-10-16, 02:04:04,VALID,1010.15,VALID,0,VALID,104,VALID,0,VALID,23.5186,VALID,168,VALID,0,
2012-10-16, 02:05:04,VALID,1010.17,VALID,0,VALID,104,VALID,0,VALID,23.4974,VALID,168,VALID,0,
2012-10-16, 02:06:04,VALID,1010.17,VALID,0,VALID,104,VALID,0.112112,VALID,23.4974,INVALID,360,VALID,0,
2012-10-16, 02:07:04,VALID,1010.16,VALID,0,VALID,104,VALID,0,VALID,23.5186,VALID,168,VALID,0,
2012-10-16, 02:08:04,VALID,1010.18,VALID,0,VALID,104,VALID,0,VALID,23.5186,VALID,168,VALID,0,
2012-10-16, 02:09:04,VALID,1010.19,VALID,0,VALID,104,VALID,0.112112,VALID,23.5186,VALID,168,VALID,0,
2012-10-16, 02:10:04,VALID,1010.22,VALID,0,VALID,104,VALID,0,VALID,23.5363,VALID,168,VALID,0,
2012-10-16, 02:11:04,VALID,1010.24,VALID,0,VALID,104,VALID,0,VALID,23.5771,VALID,168,VALID,0,
2012-10-16, 02:12:04,VALID,1010.22,VALID,0,VALID,104,VALID,0,VALID,23.5558,VALID,168,VALID,0,
2012-10-16, 02:13:04,VALID,1010.23,VALID,0,VALID,104,VALID,0,VALID,23.6161,VALID,168,VALID,0,
2012-10-16, 02:14:04,VALID,1010.23,VALID,0,VALID,104,VALID,0,VALID,23.6161,VALID,168,VALID,0,
2012-10-16, 02:15:04,VALID,1010.23,VALID,0,VALID,104,VALID,0,VALID,23.5948,VALID,168,VALID,0,
2012-10-16, 02:16:04,VALID,1010.22,VALID,0,VALID,104,VALID,0,VALID,23.5948,VALID,168,VALID,0,
2012-10-16, 02:17:04,VALID,1010.2,VALID,0,VALID,104,VALID,0,VALID,23.5948,VALID,168,VALID,0,
2012-10-16, 02:18:04,VALID,1010.15,VALID,0,VALID,104,VALID,0,VALID,23.5948,VALID,168,VALID,0,
2012-10-16, 02:19:04,VALID,1010.12,VALID,0,VALID,104,VALID,0,VALID,23.5753,VALID,168,VALID,0,
2012-10-16, 02:20:04,VALID,1010.11,VALID,0,VALID,104,VALID,0,VALID,23.5771,VALID,168,VALID,0,
2012-10-16, 02:21:04,VALID,1010.1,VALID,0,VALID,104,VALID,0,VALID,23.5771,VALID,168,VALID,0,
2012-10-16, 02:22:04,VALID,1010.09,VALID,0,VALID,104,VALID,0,VALID,23.5771,VALID,168,VALID,0,
2012-10-16, 02:23:04,VALID,1010.06,VALID,0,VALID,104,VALID,0,VALID,23.5576,VALID,168,VALID,0,
2012-10-16, 02:24:04,VALID,1010.05,VALID,0,VALID,104,VALID,0.112112,VALID,23.5576,VALID,168,VALID,0,
2012-10-16, 02:25:04,VALID,1010.05,VALID,0,VALID,104,VALID,0,VALID,23.5381,VALID,168,VALID,0,
2012-10-16, 02:26:04,VALID,1010.02,VALID,0,VALID,104,VALID,0,VALID,23.5381,VALID,168,VALID,0,
2012-10-16, 02:27:04,VALID,1010.04,VALID,0,VALID,104,VALID,0,VALID,23.5186,VALID,168,VALID,0,
2012-10-16, 02:28:04,VALID,1010.01,VALID,0,VALID,104,VALID,0,VALID,23.4974,VALID,168,VALID,0,
2012-10-16, 02:29:04,VALID,1010.04,VALID,0,VALID,104,VALID,0,VALID,23.4992,VALID,168,VALID,0,
2012-10-16, 02:30:04,VALID,1010.05,VALID,0,VALID,104,VALID,0,VALID,23.5186,VALID,168,VALID,0,
2012-10-16, 02:31:04,VALID,1010.07,VALID,0,VALID,104,VALID,0,VALID,23.4992,VALID,168,VALID,0,
2012-10-16, 02:32:04,VALID,1010.08,VALID,0,VALID,104,VALID,0,VALID,23.4992,VALID,168,VALID,0,
2012-10-16, 02:33:04,VALID,1010.09,VALID,0,VALID,104,VALID,0,VALID,23.5186,VALID,168,VALID,0,
2012-10-16, 02:34:04,VALID,1010.16,VALID,0,VALID,104,VALID,0,VALID,23.4992,VALID,168,VALID,0,
2012-10-16, 02:35:04,VALID,1010.19,VALID,0,VALID,104,VALID,0,VALID,23.5186,VALID,168,VALID,0,
2012-10-16, 02:36:04,VALID,1010.24,VALID,0,VALID,104,VALID,0,VALID,23.5381,VALID,168,VALID,0,
2012-10-16, 02:37:04,VALID,1010.24,VALID,0,VALID,104,VALID,0,VALID,23.4992,VALID,168,VALID,0,
2012-10-16, 02:38:04,VALID,1010.24,VALID,0,VALID,104,VALID,0,VALID,23.4992,VALID,168,VALID,0,
2012-10-16, 02:39:04,VALID,1010.24,VALID,0,VALID,104,VALID,0,VALID,23.4797,VALID,168,VALID,0,
2012-10-16, 02:40:04,VALID,1010.23,VALID,0,VALID,104,VALID,0.112112,VALID,23.4779,VALID,168,VALID,0,
2012-10-16, 02:41:04,VALID,1010.25,VALID,0,VALID,104,VALID,0,VALID,23.4992,VALID,168,VALID,0,
2012-10-16, 02:42:04,VALID,1010.24,VALID,0,VALID,104,VALID,0,VALID,23.5381,VALID,168,VALID,0,
2012-10-16, 02:43:04,VALID,1010.22,VALID,0,VALID,104,VALID,0,VALID,23.5363,VALID,168,VALID,0,
2012-10-16, 02:44:04,VALID,1010.21,VALID,0,VALID,104,VALID,0,VALID,23.5169,VALID,168,VALID,0,
2012-10-16, 02:45:04,VALID,1010.22,VALID,0,VALID,104,VALID,0,VALID,23.5576,VALID,168,VALID,0,
2012-10-16, 02:46:04,VALID,1010.2,VALID,0,VALID,104,VALID,0.112112,VALID,23.5558,VALID,168,VALID,0,
2012-10-16, 02:47:04,VALID,1010.18,VALID,0,VALID,104,VALID,0,VALID,23.5771,VALID,168,VALID,0,
2012-10-16, 02:48:04,VALID,1010.16,VALID,0,VALID,104,VALID,0,VALID,23.5966,VALID,168,VALID,0,
2012-10-16, 02:49:04,VALID,1010.18,VALID,0,VALID,104,VALID,0,VALID,23.5558,VALID,168,VALID,0,
2012-10-16, 02:50:04,VALID,1010.2,VALID,0,VALID,104,VALID,0,VALID,23.5558,VALID,168,VALID,0,
2012-10-16, 02:51:04,VALID,1010.19,VALID,0,VALID,104,VALID,0,VALID,23.5966,VALID,168,VALID,0,
2012-10-16, 02:52:04,VALID,1010.24,VALID,0,VALID,104,VALID,0.112112,VALID,23.5948,VALID,168,VALID,0,
2012-10-16, 02:53:04,VALID,1010.29,VALID,0,VALID,104,VALID,0,VALID,23.6161,VALID,168,VALID,0,
2012-10-16, 02:54:04,VALID,1010.3,VALID,0,VALID,104,VALID,0,VALID,23.6161,VALID,168,VALID,0,
2012-10-16, 02:55:04,VALID,1010.33,VALID,0,VALID,104,VALID,0,VALID,23.6356,VALID,168,VALID,0,
2012-10-16, 02:56:04,VALID,1010.32,VALID,0,VALID,104,VALID,0,VALID,23.6161,VALID,168,VALID,0,
2012-10-16, 02:57:04,VALID,1010.29,VALID,0,VALID,104,VALID,0,VALID,23.5948,VALID,168,VALID,0,
2012-10-16, 02:58:04,VALID,1010.27,VALID,0,VALID,104,VALID,0,VALID,23.6143,VALID,168,VALID,0,
2012-10-16, 02:59:04,VALID,1010.27,VALID,0,VALID,104,VALID,0,VALID,23.655,VALID,168,VALID,0,
2012-10-16, 03:00:04,VALID,1010.24,VALID,0,VALID,104,VALID,0,VALID,23.655,VALID,168,VALID,0,
2012-10-16, 03:01:04,VALID,1010.23,VALID,0,VALID,104,VALID,0,VALID,23.655,VALID,168,VALID,0,
2012-10-16, 03:02:04,VALID,1010.22,VALID,0,VALID,104,VALID,0,VALID,23.6532,VALID,168,VALID,0,
2012-10-16, 03:03:04,VALID,1010.2,VALID,0,VALID,104,VALID,0.112112,VALID,23.6532,VALID,168,VALID,0,
2012-10-16, 03:04:04,VALID,1010.21,VALID,0,VALID,104,VALID,0,VALID,23.6727,VALID,168,VALID,0,
2012-10-16, 03:05:04,VALID,1010.18,VALID,0,VALID,104,VALID,0,VALID,23.7135,VALID,168,VALID,0,
2012-10-16, 03:06:04,VALID,1010.17,VALID,0,VALID,104,VALID,0,VALID,23.6922,VALID,168,VALID,0,
2012-10-16, 03:07:04,VALID,1010.13,VALID,0,VALID,104,VALID,0,VALID,23.694,VALID,190,VALID,0,
2012-10-16, 03:08:04,VALID,1010.13,VALID,0,VALID,104,VALID,0.112112,VALID,23.6727,VALID,190,VALID,0,
2012-10-16, 03:09:04,VALID,1010.1,VALID,0,VALID,104,VALID,0,VALID,23.6922,VALID,190,VALID,0,
2012-10-16, 03:10:04,VALID,1010.07,VALID,0,VALID,104,VALID,0,VALID,23.7525,VALID,192,VALID,0,
2012-10-16, 03:11:04,VALID,1010.07,VALID,0,VALID,104,VALID,0,VALID,23.772,VALID,206,VALID,0.630859,
2012-10-16, 03:12:04,VALID,1010.07,VALID,0,VALID,104,VALID,0.112112,VALID,23.7525,VALID,213,VALID,0.423047,
2012-10-16, 03:13:04,VALID,1010.03,VALID,0,VALID,104,VALID,0,VALID,23.7701,VALID,186,VALID,0.397266,
2012-10-16, 03:14:04,VALID,1010.04,VALID,0,VALID,104,VALID,0,VALID,23.7701,VALID,189,VALID,0.00585938,
2012-10-16, 03:15:04,VALID,1010.05,VALID,0,VALID,104,VALID,0,VALID,23.7914,VALID,189,VALID,0,
2012-10-16, 03:16:04,VALID,1010.07,VALID,0,VALID,104,VALID,0,VALID,23.8109,VALID,189,VALID,0,
2012-10-16, 03:17:04,VALID,1010.07,VALID,0,VALID,104,VALID,0.112112,VALID,23.7701,VALID,191,VALID,0,
2012-10-16, 03:18:04,VALID,1010.08,VALID,0,VALID,104,VALID,0,VALID,23.772,VALID,192,VALID,0,
2012-10-16, 03:19:04,VALID,1010.09,VALID,0,VALID,104,VALID,0,VALID,23.7701,VALID,192,VALID,0,
2012-10-16, 03:20:04,VALID,1010.09,VALID,0,VALID,104,VALID,0.112112,VALID,23.8109,VALID,226,VALID,0.725391,
2012-10-16, 03:21:04,VALID,1010.11,VALID,0,VALID,104,VALID,0.112112,VALID,23.7914,VALID,226,VALID,0.875391,
2012-10-16, 03:22:04,VALID,1010.1,VALID,0,VALID,104,VALID,0,VALID,23.8091,VALID,221,VALID,0.765234,
2012-10-16, 03:23:04,VALID,1010.09,VALID,0,VALID,104,VALID,0.112112,VALID,23.8481,VALID,214,VALID,0.659375,
2012-10-16, 03:24:04,VALID,1010.05,VALID,0,VALID,104,VALID,0.112112,VALID,23.8676,VALID,194,VALID,1.03789,
2012-10-16, 03:25:04,VALID,1010.07,VALID,0,VALID,104,VALID,0.112112,VALID,23.8871,VALID,225,VALID,1.07266,
2012-10-16, 03:26:04,VALID,1010,VALID,0,VALID,104,VALID,0.112112,VALID,23.926,VALID,197,VALID,1.20156,
2012-10-16, 03:27:04,VALID,1009.98,VALID,0,VALID,104,VALID,0,VALID,23.9278,VALID,188,VALID,1.16719,
2012-10-16, 03:28:04,VALID,1009.98,VALID,0,VALID,104,VALID,0.112112,VALID,23.9863,VALID,234,VALID,0.74375,
2012-10-16, 03:29:04,VALID,1009.96,VALID,0,VALID,104,VALID,0.112112,VALID,23.9455,VALID,189,VALID,0.923437,
2012-10-16, 03:30:04,VALID,1009.96,VALID,0,VALID,104,VALID,0.112112,VALID,23.926,VALID,230,VALID,1.13867,
2012-10-16, 03:31:04,VALID,1009.98,VALID,0,VALID,104,VALID,0.112112,VALID,23.9668,VALID,222,VALID,1.1043,
2012-10-16, 03:32:04,VALID,1010,VALID,0,VALID,104,VALID,0,VALID,23.965,VALID,215,VALID,1.09141,
2012-10-16, 03:33:04,VALID,1010.04,VALID,0,VALID,104,VALID,0,VALID,23.9863,VALID,217,VALID,0.546094,
2012-10-16, 03:34:04,VALID,1010.05,VALID,0,VALID,104,VALID,0,VALID,23.9845,VALID,205,VALID,0.930078,
2012-10-16, 03:35:04,VALID,1010.08,VALID,0,VALID,104,VALID,0,VALID,23.9455,VALID,210,VALID,0.928516,
2012-10-16, 03:36:04,VALID,1010.09,VALID,0,VALID,104,VALID,0.112112,VALID,23.9863,VALID,209,VALID,0.457031,
2012-10-16, 03:37:04,VALID,1010.11,VALID,0,VALID,104,VALID,0.112112,VALID,23.965,VALID,205,VALID,0.647656,
2012-10-16, 03:38:04,VALID,1010.11,VALID,0,VALID,104,VALID,0,VALID,23.9845,VALID,193,VALID,0.436328,
2012-10-16, 03:39:04,VALID,1010.13,VALID,0,VALID,104,VALID,0,VALID,24.0253,VALID,247,VALID,0.574219,
2012-10-16, 03:40:04,VALID,1010.13,VALID,0,VALID,104,VALID,0,VALID,24.0058,VALID,206,VALID,0.375,
2012-10-16, 03:41:04,VALID,1010.12,VALID,0,VALID,104,VALID,0,VALID,24.0058,VALID,207,VALID,0.0621094,
2012-10-16, 03:42:04,VALID,1010.15,VALID,0,VALID,104,VALID,0,VALID,24.0058,VALID,206,VALID,0,
2012-10-16, 03:43:04,VALID,1010.15,VALID,0,VALID,104,VALID,0,VALID,24.0253,VALID,206,VALID,0.407031,
2012-10-16, 03:44:04,VALID,1010.13,VALID,0,VALID,104,VALID,0.112112,VALID,23.9845,VALID,213,VALID,0.772656,
2012-10-16, 03:45:04,VALID,1010.15,VALID,0,VALID,104,VALID,0.112112,VALID,24.0058,VALID,213,VALID,0.283594,
2012-10-16, 03:46:04,VALID,1010.12,VALID,0,VALID,104,VALID,0,VALID,24.0253,VALID,211,VALID,0.725,
2012-10-16, 03:47:04,VALID,1010.12,VALID,0,VALID,104,VALID,0,VALID,24.004,VALID,208,VALID,0.571875,
2012-10-16, 03:48:04,VALID,1010.13,VALID,0,VALID,104,VALID,0.112112,VALID,23.9845,VALID,205,VALID,0.719141,
2012-10-16, 03:49:04,VALID,1010.19,VALID,0,VALID,104,VALID,0,VALID,24.004,VALID,206,VALID,0.132031,
2012-10-16, 03:50:04,VALID,1010.22,VALID,0,VALID,104,VALID,0,VALID,24.0253,VALID,206,VALID,0.0722656,
2012-10-16, 03:51:04,VALID,1010.23,VALID,0,VALID,104,VALID,0,VALID,24.004,VALID,206,VALID,0.271484,
2012-10-16, 03:52:04,VALID,1010.27,VALID,0,VALID,104,VALID,0.112112,VALID,24.004,VALID,206,VALID,0.146875,
2012-10-16, 03:53:04,VALID,1010.28,VALID,0,VALID,104,VALID,0,VALID,23.9845,VALID,206,VALID,0,
2012-10-16, 03:54:04,VALID,1010.29,VALID,0,VALID,104,VALID,0,VALID,24.0253,VALID,206,VALID,0,
2012-10-16, 03:55:04,VALID,1010.3,VALID,0,VALID,104,VALID,0.112112,VALID,24.004,VALID,206,VALID,0.286719,
2012-10-16, 03:56:04,VALID,1010.32,VALID,0,VALID,104,VALID,0,VALID,24.004,VALID,206,VALID,0.383984,
2012-10-16, 03:57:04,VALID,1010.27,VALID,0,VALID,104,VALID,0,VALID,24.0253,VALID,200,VALID,0.474219,
2012-10-16, 03:58:04,VALID,1010.3,VALID,0,VALID,104,VALID,0.112112,VALID,24.0235,VALID,198,VALID,0.298438,